Regional Weather Roundup
Issued by NWS Upton, NY

Current Version | Previous Version | Graphics & Text | Print | Product List | Glossary Off
Versions: 1 2 3 4 5 6 7 8 9 10 11 12 13 14 15 16 17 18 19 20 21 22 23 24 25 26 27

000
ASUS41 KOKX 271009
RWROKX

REGIONAL WEATHER ROUNDUP
NATIONAL WEATHER SERVICE NEW YORK NY
600 AM EDT TUE JUN 27 2017

NOTE: "FAIR" INDICATES FEW OR NO CLOUDS BELOW 12,000 FEET WITH NO
SIGNIFICANT WEATHER AND/OR OBSTRUCTIONS TO VISIBILITY.

NYZ071-072-176-178-NJZ106-104-271100-
NEW YORK CITY METRO AREA

CITY           SKY/WX    TMP DP  RH WIND       PRES   REMARKS
Central Park   HVY RAIN  61  59  93 CALM      30.06R FOG
Bronx Bot Gard   N/A     59  57  94 E3        30.03S
LaGuardia APRT RAIN      63  58  83 CALM      30.02R
Kennedy INTL   RAIN      63  58  83 N8        30.04R
Breezy Point     N/A     59 N/A N/A NW6         N/A
Newark/Liberty NOT AVBL
Teterboro      LGT RAIN  61  59  94 SE3       30.01  FOG
$$

NYZ177-179-078>081-271100-
LONG ISLAND NEW YORK

CITY           SKY/WX    TMP DP  RH WIND       PRES   REMARKS
Jones Beach      N/A     64 N/A N/A NW8         N/A
Matinecock PT  NOT AVBL
Farmingdale    NOT AVBL
MacArthur/ISP  MOCLDY    63  59  87 CALM      30.00
Shirley        NOT AVBL
Mt Sinai Harb    N/A    N/A N/A N/A NE2         N/A
Westhampton    NOT AVBL
East Hampton   FAIR      58  56  94 CALM      30.00F
Montauk          N/A     66  65  96 CALM      30.02R
$$

NYZ052-065-067-271100-
HUDSON VALLEY

CITY           SKY/WX    TMP DP  RH WIND       PRES   REMARKS
White Plains   NOT AVBL
Larchmont Harb   N/A     61 N/A N/A MISG        N/A
Croton O-T Hud   N/A     59 N/A N/A E3          N/A
Newburgh       MOCLDY    57  57 100 CALM      30.01R
Montgomery     NOT AVBL
Poughkeepsie   NOT AVBL
Albany         CLOUDY    56  54  93 CALM      29.99S
$$

NJZ001-105-106-008-010-013-015-019>022-104-271100-
NEW JERSEY

CITY           SKY/WX    TMP DP  RH WIND       PRES   REMARKS
Newark/Liberty NOT AVBL
Teterboro      LGT RAIN  61  59  94 SE3       30.01  FOG
Caldwell       NOT AVBL
Somerville     NOT AVBL
Linden         LGT RAIN  61  57  85 CALM      30.01F
Perth Amboy      N/A     59 N/A N/A E6          N/A
Sussex         NOT AVBL
Andover          N/A     57  55  93 CALM      30.01R
Trenton        NOT AVBL
Millville      NOT AVBL
Atlantic City  NOT AVBL
Wrightstown    CLOUDY    59  58  94 SE6       29.97F
Toms River     NOT AVBL
Belmar         NOT AVBL
$$

PAZ047>061-062-071-271100-
EASTERN PENNSYLVANIA

CITY           SKY/WX    TMP DP  RH WIND       PRES   REMARKS
Philadelphia   PTCLDY    62  59  90 E5        30.00R
Allentown      NOT AVBL
Scranton       NOT AVBL
$$

CTZ002-004>006-009-010-012-RIZ004-006-007-MAZ004-011-015-271100-
SOUTHERN NEW ENGLAND
 IN CT

CITY           SKY/WX    TMP DP  RH WIND       PRES   REMARKS
Bradley INTL   CLOUDY    59  54  83 SW5       30.00S
Hartford       MOCLDY    61  56  83 CALM      30.00S
Danbury        NOT AVBL
Wtrbury/Oxford LGT RAIN  57  50  77 S6        30.02R
Bridgeport     NOT AVBL
Meriden        CLOUDY    60  55  83 NW6       30.01R
New Haven      MOCLDY    61  57  88 NE5       30.00
Chester        PTSUNNY   61  57  88 CALM      30.00F
Groton         PTCLDY    61  58  90 NE3       29.99S
Wilimantic     CLOUDY    57  55  93 CALM      30.01S

 IN RI

CITY           SKY/WX    TMP DP  RH WIND       PRES   REMARKS
Providence     PTCLDY    59  58  96 CALM      30.01S
Block Island     N/A     65  63  93 W10       30.02R
Westerly       FOG       59  58  96 E3        30.01S VSB 1/4
 IN MA

CITY           SKY/WX    TMP DP  RH WIND       PRES   REMARKS
Boston         MOCLDY    63  56  78 SW6       30.00R
Worcester      CLOUDY    60  48  64 CALM      30.01S
Westfield      MOCLDY    56  55  97 CALM        N/A
Provincetown   CLEAR     63  59  87 S8        30.02R
Nantucket      CLEAR     62  58  86 S5        30.03S
$$

ANZ330-335-338-340-345-350-353-355-271100-
COASTAL MARINE OBSERVATIONS


STATION/POSITION TIME  SKY/WX   TEMP    WIND        PRES    VSBY  WAVE
                                AIR SEA DIR/SP/G                  HT/PER
                 (UTC)          (F)     (DEG/KT/KT) (MB)    (MI)  (FT/S)
NY HARB ENTRANCE 0850            68 67   20/  8/  8 1015.4          2/ 8
20 S FIRE ISLAND 0950            69 69  230/  8/ 10 1015.5          2/ 4
GREAT SOUTH BAY  0915            68 75   30/  6/  8   N/A
23 SSW MONTAUK P 0850            66 65              1016.1          2/ 8
15 E BARNEGAT LI 0930               65                N/A           2/ 8
HUDSON CANYON    0850            68 67  150/  6/  6 1015.8          2/ 7
KINGS POINT      0930            64 65   CALM  /  5 1016.5
EXECUTION ROCKS  0945            64     320/  2/  4   N/A
CENTRAL LI SOUND 0930            65      10/  6/  8   N/A           1
EASTERN LI SOUND NOT AVBL
ROBBINS REEF     0924                   310/  7/  8 1017.3
$$


>>>>>>>>>>>>>>>>>>>>>>>>>>>> KEY <<<<<<<<<<<<<<<<<<<<<<<<<<<
>                                                          <
>     SKY/WX - Sky Condition/Present Weather               <
>     TMP    - Temperature in Fahrenheit                   <
>     DP     - Dew Point in Fahrenheit                     <
>     RH     - Relative Humidity in Percent                <
>     WIND   - Direction (from) and Speed in MPH           <
>     PRES   - Mean Sea Level Pressure (inches of Hg)      <
>     WCI    - Wind Chill Index                            <
>     VSB    - VISIBILITY IN MILES                         <
>     HX     - HEAT INDEX                                  <
>     TC     - TEMPERATURE IN CELSIUS                      <
>     VRB    - VARIABLE WIND DIRECTION                     <
>                                                          <
>>>>>>>>>>>>>>>>>>>>>>>>>>>> KEY <<<<<<<<<<<<<<<<<<<<<<<<<<<




USA.gov is the U.S. government's official web portal to all federal, state and local government web resources and services.